sat.trackr.live / text

‹ back to catalog

STARLINK-5169

NORAD 54060 · 2022-136K

PAYLOAD ACTIVE UNKNOWN

§ Identity

Operator
Country
US
Launch date
2022-10-20
Launch site
AFETR
Launch vehicle
Mass (kg)
RCS (m²)

Purposes: comms

External: N2YO · Heavens-Above · Gunter

§ Orbital elements

Epoch: 2026-05-24T21:25:57.650304Z

Period
95.44 min
Inclination
53.2125°
Eccentricity
0.0001791
Mean motion
15.08837085 rev/d
Perigee alt
538.5 km
Apogee alt
541.0 km
Semi-major
6,917.9 km
B*
4.6396e-5
RAAN
331.6882°
Arg perigee
100.2263°
Mean anomaly
259.8931°
Rev number
19,877

§ Raw data

STARLINK-51691 54060U 22136K   26144.89302836  .00000450  00000+0  46396-4 0  99952 54060  53.2125 331.6882 0001791 100.2263 259.8931 15.08837085198772

JSON: /api/v1/satellites/54060 · /tle

For live sub-satellite position, see the globe view (requires WebGL).

§ Visibility from observer

Set your observer location to see the next 7 days of passes ≥ 10°. The values pass through the URL so the page stays shareable.

No JS? Fill the form by hand. The geolocation button needs JavaScript.